Glidden, IA

2:57 AM CST on February 12, 2016 (GMT -0600)
Neu

Weather History for KCIN - November, 2013

Change the Weather History Date:

Sunday, November 24, 2013

  Actual Average Record
Temperature  
Mean Temperature 16 °F -  
Max Temperature 26 °F 42 °F 69 °F (2011)
Min Temperature 5 °F 21 °F 0 °F (1950)
Degree Days  
Heating Degree Days 50    
Moisture  
Dew Point 7 °F    
Average Humidity 66    
Maximum Humidity 79    
Minimum Humidity 50    
Precipitation  
Precipitation 0.00 in - - ()
Sea Level Pressure  
Sea Level Pressure 30.45 in    
Wind  
Wind Speed 10 mph (SSW)    
Max Wind Speed 25 mph    
Max Gust Speed 31 mph    
Visibility 10 miles    
Events      
Averages and records for this station are not official NWS values.
T = Trace of Precipitation, MM = Missing Value Source: NWS Daily Summary

Daily Weather History Graph

Daily Weather History Graph

Search for Another Location

Airport or City:

Trip Planner

Search our weather history database for the weather conditions in past years. The results will help you decide how hot, cold, wet, or windy it might be!

Date:

Astronomy

Nov. 24, 2013 Rise Set
Actual Time 7:20 AM CST 4:51 PM CST
Civil Twilight 6:49 AM CST 5:22 PM CST
Nautical Twilight 6:15 AM CST 5:56 PM CST
Astronomical Twilight 5:41 AM CST 6:29 PM CST
Moon 11:21 PM CST (11/24) 12:05 PM CST (11/24)
Length of Visible Light 10h 32m
Length of Day
9h 31m
Waning Gibbous, 60% of the Moon is Illuminated
Nov 24
Waning Gibbous
Nov 25
Last Quarter
Dec 2
New
Dec 9
First Quarter
Dec 17
Full

Hourly Weather History & Observations

Time (CST) Temp. Windchill Dew Point Humidity Pressure Visibility Wind Dir Wind Speed Gust Speed Precip Events Conditions
12:15 AM 5.0 °F -2.1 °F -0.4 °F 78% 30.73 in 10.0 mi West 3.5 mph - N/A   Clear
12:35 AM 5.0 °F - -0.4 °F 78% 30.72 in 10.0 mi Calm Calm - N/A   Clear
12:55 AM 5.0 °F - -0.4 °F 78% 30.71 in 10.0 mi Calm Calm - N/A   Clear
1:15 AM 5.0 °F - -0.4 °F 78% 30.70 in 10.0 mi Calm Calm - N/A   Clear
1:35 AM 5.0 °F - -0.4 °F 78% 30.69 in 10.0 mi Calm Calm - N/A   Clear
1:55 AM 6.8 °F - 1.4 °F 79% 30.69 in 10.0 mi Calm Calm - N/A   Clear
2:15 AM 6.8 °F -2.0 °F 1.4 °F 79% 30.68 in 10.0 mi SW 4.6 mph - N/A   Clear
2:35 AM 8.6 °F -3.7 °F 1.4 °F 73% 30.67 in 10.0 mi SSW 8.1 mph - N/A   Clear
2:55 AM 8.6 °F -3.7 °F 1.4 °F 73% 30.67 in 10.0 mi SSW 8.1 mph - N/A   Clear
3:15 AM 6.8 °F - 1.4 °F 79% 30.67 in 10.0 mi Calm Calm - N/A   Clear
3:35 AM 6.8 °F - 1.4 °F 79% 30.67 in 10.0 mi Calm Calm - N/A   Clear
3:55 AM 6.8 °F - 1.4 °F 79% 30.66 in 10.0 mi Calm Calm - N/A   Clear
4:15 AM 6.8 °F -3.5 °F 1.4 °F 79% 30.65 in 10.0 mi SSW 5.8 mph - N/A   Clear
4:35 AM 6.8 °F -5.9 °F 1.4 °F 79% 30.65 in 10.0 mi SSW 8.1 mph - N/A   Clear
4:55 AM 8.6 °F -4.7 °F 1.4 °F 73% 30.64 in 10.0 mi SSW 9.2 mph - N/A   Partly Cloudy
5:15 AM 8.6 °F -4.7 °F 3.2 °F 79% 30.63 in 10.0 mi South 9.2 mph - N/A   Clear
5:35 AM 8.6 °F -4.7 °F 3.2 °F 79% 30.63 in 10.0 mi SSW 9.2 mph - N/A   Clear
5:55 AM 8.6 °F -5.5 °F 3.2 °F 79% 30.61 in 10.0 mi South 10.4 mph - N/A   Clear
6:15 AM 8.6 °F -6.3 °F 3.2 °F 79% 30.61 in 10.0 mi South 11.5 mph - N/A   Clear
6:35 AM 8.6 °F -6.3 °F 3.2 °F 79% 30.61 in 10.0 mi South 11.5 mph - N/A   Clear
6:55 AM 8.6 °F -7.0 °F 3.2 °F 79% 30.60 in 10.0 mi South 12.7 mph - N/A   Clear
7:15 AM 8.6 °F -7.7 °F 3.2 °F 79% 30.59 in 10.0 mi South 13.8 mph - N/A   Clear
7:35 AM 10.4 °F -4.8 °F 3.2 °F 73% 30.59 in 10.0 mi South 12.7 mph - N/A   Clear
7:55 AM 10.4 °F -6.0 °F 3.2 °F 73% 30.59 in 10.0 mi South 15.0 mph - N/A   Clear
8:15 AM 12.2 °F -2.5 °F 3.2 °F 67% 30.58 in 10.0 mi South 12.7 mph - N/A   Clear
8:35 AM 12.2 °F -3.1 °F 5.0 °F 73% 30.58 in 10.0 mi South 13.8 mph - N/A   Clear
8:55 AM 14.0 °F -1.4 °F 5.0 °F 67% 30.57 in 10.0 mi SSW 15.0 mph - N/A   Clear
9:15 AM 14.0 °F -2.0 °F 5.0 °F 67% 30.57 in 10.0 mi SSW 16.1 mph - N/A   Clear
9:35 AM 15.8 °F -0.2 °F 3.2 °F 58% 30.57 in 10.0 mi SSW 17.3 mph 26.5 mph N/A   Clear
9:55 AM 15.8 °F -1.1 °F 3.2 °F 58% 30.56 in 10.0 mi SSW 19.6 mph 25.3 mph N/A   Clear
10:15 AM 17.6 °F 2.2 °F 3.2 °F 53% 30.55 in 10.0 mi SSW 17.3 mph 25.3 mph N/A   Clear
10:35 AM 19.4 °F 5.5 °F 5.0 °F 54% 30.53 in 10.0 mi SSW 15.0 mph - N/A   Clear
10:55 AM 19.4 °F 3.6 °F 5.0 °F 54% 30.52 in 10.0 mi SSW 19.6 mph - N/A   Clear
11:15 AM 19.4 °F 3.2 °F 6.8 °F 58% 30.50 in 10.0 mi SSW 20.7 mph - N/A   Clear
11:35 AM 21.2 °F 6.0 °F 6.8 °F 54% 30.49 in 10.0 mi SSW 19.6 mph 27.6 mph N/A   Clear
11:55 AM 23.0 °F 9.2 °F 6.8 °F 50% 30.47 in 10.0 mi SSW 17.3 mph 24.2 mph N/A   Clear
12:15 PM 23.0 °F 8.0 °F 8.6 °F 54% 30.45 in 10.0 mi SSW 20.7 mph - N/A   Clear
12:35 PM 23.0 °F 8.0 °F 10.4 °F 59% 30.43 in 10.0 mi SSW 20.7 mph - N/A   Clear
12:55 PM 24.8 °F 10.3 °F 10.4 °F 54% 30.42 in 10.0 mi SSW 20.7 mph 26.5 mph N/A   Clear
1:15 PM 24.8 °F 11.1 °F 10.4 °F 54% 30.40 in 10.0 mi SSW 18.4 mph 27.6 mph N/A   Clear
1:35 PM 24.8 °F 10.3 °F 10.4 °F 54% 30.38 in 10.0 mi SSW 20.7 mph - N/A   Clear
1:55 PM 26.6 °F 12.7 °F 10.4 °F 51% 30.37 in 10.0 mi SSW 20.7 mph 26.5 mph N/A   Clear
2:15 PM 26.6 °F 12.0 °F 10.4 °F 51% 30.35 in 10.0 mi SSW 23.0 mph - N/A   Clear
2:35 PM 26.6 °F 12.4 °F 10.4 °F 51% 30.35 in 10.0 mi SSW 21.9 mph 28.8 mph N/A   Clear
2:55 PM 26.6 °F 12.4 °F 12.2 °F 55% 30.34 in 10.0 mi SSW 21.9 mph 29.9 mph N/A   Clear
3:15 PM 26.6 °F 13.4 °F 12.2 °F 55% 30.33 in 10.0 mi SSW 18.4 mph 26.5 mph N/A   Clear
3:35 PM 26.6 °F 13.1 °F 12.2 °F 55% 30.33 in 10.0 mi SSW 19.6 mph 25.3 mph N/A   Clear
3:55 PM 26.6 °F 13.4 °F 12.2 °F 55% 30.32 in 10.0 mi SSW 18.4 mph - N/A   Clear
4:15 PM 24.8 °F 11.5 °F 14.0 °F 64% 30.31 in 10.0 mi South 17.3 mph 24.2 mph N/A   Clear
4:35 PM 24.8 °F 12.4 °F 12.2 °F 59% 30.30 in 10.0 mi South 15.0 mph - N/A   Clear
4:55 PM 23.0 °F 11.7 °F 12.2 °F 63% 30.30 in 10.0 mi South 11.5 mph - N/A   Clear
5:15 PM 23.0 °F 11.1 °F 12.2 °F 63% 30.29 in 10.0 mi South 12.7 mph - N/A   Clear
5:35 PM 23.0 °F 10.6 °F 12.2 °F 63% 30.29 in 10.0 mi South 13.8 mph - N/A   Clear
5:55 PM 23.0 °F 9.2 °F 12.2 °F 63% 30.28 in 10.0 mi South 17.3 mph - N/A   Clear
6:15 PM 21.2 °F 6.4 °F 10.4 °F 63% 30.28 in 10.0 mi South 18.4 mph - N/A   Clear
6:35 PM 21.2 °F 7.3 °F 10.4 °F 63% 30.27 in 10.0 mi South 16.1 mph - N/A   Clear
6:55 PM 21.2 °F 7.8 °F 12.2 °F 68% 30.26 in 10.0 mi South 15.0 mph - N/A   Clear
7:15 PM 21.2 °F 7.3 °F 12.2 °F 68% 30.26 in 10.0 mi South 16.1 mph - N/A   Clear
7:35 PM 21.2 °F 6.8 °F 12.2 °F 68% 30.25 in 10.0 mi South 17.3 mph 24.2 mph N/A   Clear
7:55 PM 21.2 °F 6.4 °F 12.2 °F 68% 30.23 in 10.0 mi South 18.4 mph 25.3 mph N/A   Clear
8:15 PM 21.2 °F 5.6 °F 12.2 °F 68% 30.23 in 10.0 mi South 20.7 mph - N/A   Clear
8:35 PM 21.2 °F 4.9 °F 12.2 °F 68% 30.21 in 10.0 mi South 23.0 mph - N/A   Clear
8:55 PM 23.0 °F 6.6 °F 12.2 °F 63% 30.20 in 10.0 mi SSW 25.3 mph 31.1 mph N/A   Clear
9:15 PM 23.0 °F 7.6 °F 12.2 °F 63% 30.20 in 10.0 mi South 21.9 mph 28.8 mph N/A   Clear
9:35 PM 23.0 °F 8.3 °F 12.2 °F 63% 30.20 in 10.0 mi SSW 19.6 mph - N/A   Scattered Clouds
9:55 PM 23.0 °F 8.0 °F 12.2 °F 63% 30.19 in 10.0 mi SSW 20.7 mph - N/A   Overcast
10:15 PM 24.8 °F 9.3 °F 14.0 °F 64% 30.18 in 10.0 mi SSW 24.2 mph - N/A   Overcast
10:35 PM 24.8 °F 10.7 °F 14.0 °F 64% 30.18 in 10.0 mi SSW 19.6 mph 27.6 mph N/A   Mostly Cloudy
10:55 PM 24.8 °F 11.1 °F 14.0 °F 64% 30.19 in 10.0 mi SSW 18.4 mph 26.5 mph N/A   Overcast
11:15 PM 24.8 °F 10.0 °F 14.0 °F 64% 30.19 in 8.0 mi SSW 21.9 mph - N/A   Overcast
11:35 PM 24.8 °F 10.0 °F 14.0 °F 64% 30.18 in 10.0 mi SSW 21.9 mph - N/A   Overcast
11:55 PM 24.8 °F 11.1 °F 14.0 °F 64% 30.18 in 10.0 mi SSW 18.4 mph 26.5 mph N/A   Overcast